Location: Cuiry
(49.3858°N, 3.7708°E)
Time: 01:43:31
(UTC+00:00)

UNK - Pass Details

Date: 14 April 2026
Orbit: 653 x 673 km, 98.4° (Epoch: 19 May)

Event Time Altitude Azimuth Distance (km) Brightness Sun altitude
Rises 04:15:01 0° 166° (SSE) 3,010 7.0 -7.0°
Reaches altitude 10° 04:17:14 10° 167° (SSE) 2,100 6.2 -6.7°
Maximum altitude 04:21:50 84° 253° (WSW) 683 3.7 -6.0°
Drops below altitude 10° 04:26:28 10° 344° (NNW) 2,110 6.4 -5.3°
Sets 04:28:42 0° 346° (NNW) 3,026 7.2 -5.0°
